Vertical_Velocity
1 -1 1 0 2 1 -0 3 2 1 0 26 1 -7 -4 -1 0 -2 -2 -1 -1 4
3 -1 0 1 1 1 -0 -1 2 -1 -1 8 0 -6 7 1 0 -0 6 2 -0 -0
3 1 2 4 -0 2 3 0 -0 -0 0 2 0 -2 -0 1 -1 -3 -1 1 5 0
3 2 2 2 4 2 1 1 1 1 -1 1 1 10 -2 3 1 -1 -1 -2 -5 -1
3 4 3 2 1 2 1 -0 0 -0 -1 -1 1 -0 2 0 1 1 -2 -0 -2 1
4 3 2 0 1 0 1 1 1 -2 -2 -1 1 0 2 0 -1 -1 -1 -4 2 4
4 3 5 1 1 1 2 1 -1 1 1 1 0 -0 1 -0 -2 -1 3 9 -3 0
4 3 4 1 3 2 2 2 0 1 -0 -1 -1 -1 -0 1 1 -0 -2 -2 -1 -1
2 2 3 2 1 2 2 3 3 0 -0 -1 -1 0 1 1 -0 1 -2 -1 0 1
-1 1 1 1 2 1 -2 -1 0 1 1 0 0 1 -0 -0 -1 -0 4 -0 -0 -1
3 -1 -2 6 2 1 -5 0 -1 -0 -1 -0 1 -0 -1 1 -1 -1 -0 0 -0 -2
6 7 4 -2 -5 -5 -0 -0 0 1 -7 -2 -1 -0 1 -0 1 0 0 0 2 -4
4 4 9 6 5 14 7 1 1 -4 2 1 1 2 -1 -1 -2 -3 -1 2 -1 6
2 4 5 9 7 10 4 7 -1 2 8 3 0 1 -2 0 0 -1 2 4 -0 -1
Height
3053 3059 3064 3070 3076 3081 3086 3091 3096 3098 3103 3106 3111 3115 3118 3122 3125 3128 3131 3132 3135 3137
3044 3049 3055 3062 3067 3073 3078 3083 3087 3090 3095 3098 3104 3109 3112 3115 3118 3121 3123 3126 3128 3130
3035 3042 3048 3054 3059 3064 3070 3075 3079 3083 3088 3092 3097 3101 3104 3107 3111 3113 3117 3119 3121 3124
3027 3033 3040 3045 3051 3057 3062 3066 3071 3075 3079 3084 3089 3093 3096 3099 3102 3106 3109 3112 3115 3117
3019 3025 3031 3037 3043 3049 3055 3059 3063 3067 3071 3075 3080 3084 3088 3091 3095 3099 3101 3105 3107 3110
3010 3017 3022 3029 3035 3041 3047 3052 3056 3060 3064 3068 3072 3076 3081 3084 3087 3090 3093 3096 3098 3102
3001 3008 3014 3020 3027 3033 3039 3044 3048 3052 3057 3060 3064 3068 3073 3076 3079 3082 3084 3086 3091 3094
2991 2998 3005 3012 3018 3024 3030 3036 3040 3044 3048 3052 3055 3059 3064 3067 3071 3074 3076 3079 3082 3084
2983 2989 2995 3002 3008 3014 3020 3026 3030 3035 3039 3043 3046 3050 3054 3057 3060 3063 3065 3069 3071 3074
2975 2981 2986 2993 2999 3004 3009 3015 3020 3025 3029 3033 3037 3041 3044 3047 3050 3052 3056 3058 3060 3062
2968 2973 2978 2985 2991 2996 3001 3006 3011 3015 3019 3023 3027 3031 3035 3038 3040 3043 3046 3048 3050 3051
2960 2965 2971 2976 2982 2986 2992 2997 3001 3006 3010 3014 3018 3022 3026 3029 3032 3033 3035 3037 3040 3042
2953 2957 2962 2967 2972 2976 2983 2988 2992 2997 3001 3006 3010 3013 3016 3019 3021 3023 3025 3028 3031 3033
2950 2952 2956 2960 2964 2969 2974 2979 2984 2988 2992 2997 3000 3004 3008 3011 3013 3016 3018 3021 3024 3026